JBU939 KJFK-MMSD

Flight info

Callsign JBU939
Flight time N/A
Altitude 30000
Route RBV Q430 COPES Q75 GVE DCT LYH DCT COLZI DCT ODF DCT RMG DCT JAMMR DCT MERDN DCT LCH DCT VUH DCT PSX DCT LRD J22 NLD DCT MURDU DCT NAPDA UJ10 ENEKO
Aircraft A21N/M-SDE2E3FGHIRWXY/LB1

Departure

Time N/A
Airport John F. Kennedy International Airport (KJFK)

Arrival

Time 2026-05-08 15:01
Airport Los Cabos International Airport (MMSD)
Time Latitude Longitude Altitude Speed Heading
2026-05-08 14:29 24.79035 -107.34139 29990 ft 397 kts 255°
2026-05-08 14:29 24.78475 -107.37060 29978 ft 397 kts 256°
2026-05-08 14:30 24.77329 -107.43076 29949 ft 397 kts 256°
2026-05-08 14:30 24.76162 -107.49058 29943 ft 397 kts 254°
2026-05-08 14:31 24.74836 -107.54917 29956 ft 397 kts 253°
2026-05-08 14:31 24.73485 -107.60804 29959 ft 397 kts 253°
2026-05-08 14:32 24.71474 -107.69627 29961 ft 396 kts 253°
2026-05-08 14:32 24.70125 -107.75590 29962 ft 397 kts 253°
2026-05-08 14:33 24.68697 -107.81420 29955 ft 395 kts 247°
2026-05-08 14:33 24.65654 -107.86578 29962 ft 397 kts 229°
2026-05-08 14:34 24.61654 -107.90884 29963 ft 397 kts 226°
2026-05-08 14:34 24.57660 -107.95135 29963 ft 397 kts 226°
2026-05-08 14:35 24.53680 -107.99355 29963 ft 397 kts 226°
2026-05-08 14:35 24.49683 -108.03587 29965 ft 398 kts 227°
2026-05-08 14:36 24.45704 -108.07805 29965 ft 398 kts 227°
2026-05-08 14:36 24.41728 -108.12010 29962 ft 398 kts 227°
2026-05-08 14:37 24.37740 -108.16219 29962 ft 398 kts 227°
2026-05-08 14:37 24.33738 -108.20435 29962 ft 398 kts 227°
2026-05-08 14:38 24.29737 -108.24648 29964 ft 398 kts 227°
2026-05-08 14:38 24.25744 -108.28849 29965 ft 398 kts 227°
2026-05-08 14:39 24.21755 -108.33041 29966 ft 398 kts 227°
2026-05-08 14:39 24.17746 -108.37247 29972 ft 398 kts 227°
2026-05-08 14:40 24.13742 -108.41444 29990 ft 397 kts 227°
2026-05-08 14:40 24.09748 -108.45624 30009 ft 398 kts 227°
2026-05-08 14:41 24.05744 -108.49812 30015 ft 398 kts 227°
2026-05-08 14:41 24.01754 -108.53979 30016 ft 398 kts 226°
2026-05-08 14:42 23.97752 -108.58142 30016 ft 398 kts 226°
2026-05-08 14:42 23.93728 -108.62331 30006 ft 398 kts 227°
2026-05-08 14:43 23.89714 -108.66516 30002 ft 398 kts 226°
2026-05-08 14:43 23.85699 -108.70703 30006 ft 399 kts 226°
2026-05-08 14:44 23.81687 -108.74889 30008 ft 399 kts 226°
2026-05-08 14:44 23.77675 -108.79066 30007 ft 400 kts 226°
2026-05-08 14:45 23.75633 -108.81190 29653 ft 401 kts 226°
2026-05-08 14:45 23.73619 -108.83280 29194 ft 396 kts 226°
2026-05-08 14:45 23.71638 -108.85335 28711 ft 391 kts 226°
2026-05-08 14:45 23.69642 -108.87407 28209 ft 390 kts 226°
2026-05-08 14:46 23.67684 -108.89436 27715 ft 392 kts 226°
2026-05-08 14:46 23.65693 -108.91493 27202 ft 394 kts 226°
2026-05-08 14:46 23.63678 -108.93579 26653 ft 397 kts 226°
2026-05-08 14:46 23.61630 -108.95700 26063 ft 399 kts 226°
2026-05-08 14:47 23.59553 -108.97851 25437 ft 401 kts 226°
2026-05-08 14:47 23.57538 -108.99935 24822 ft 398 kts 225°
2026-05-08 14:47 23.55520 -109.02021 24197 ft 395 kts 225°
2026-05-08 14:47 23.53542 -109.04065 23578 ft 393 kts 225°
2026-05-08 14:48 23.51551 -109.06124 22953 ft 392 kts 225°
2026-05-08 14:48 23.49598 -109.08145 22337 ft 390 kts 225°
2026-05-08 14:48 23.47635 -109.10175 21716 ft 388 kts 225°
2026-05-08 14:48 23.45687 -109.12187 21084 ft 386 kts 225°
2026-05-08 14:49 23.43733 -109.14200 20446 ft 383 kts 225°
2026-05-08 14:49 23.41802 -109.16197 19810 ft 380 kts 225°
2026-05-08 14:49 23.39892 -109.18166 19180 ft 379 kts 225°
2026-05-08 14:49 23.37976 -109.20136 18546 ft 377 kts 225°
2026-05-08 14:50 23.36095 -109.22071 17920 ft 374 kts 225°
2026-05-08 14:50 23.34214 -109.24005 17287 ft 370 kts 225°
2026-05-08 14:50 23.32335 -109.25936 16647 ft 367 kts 225°
2026-05-08 14:50 23.30479 -109.27838 16007 ft 365 kts 225°
2026-05-08 14:51 23.28636 -109.29724 15369 ft 362 kts 225°
2026-05-08 14:51 23.26825 -109.31586 14756 ft 359 kts 225°
2026-05-08 14:51 23.24998 -109.33467 14129 ft 355 kts 225°
2026-05-08 14:51 23.23216 -109.35298 13509 ft 352 kts 225°
2026-05-08 14:52 23.21454 -109.37109 12897 ft 349 kts 225°
2026-05-08 14:52 23.17952 -109.40706 11661 ft 342 kts 225°
2026-05-08 14:52 23.16210 -109.42500 11041 ft 339 kts 225°
2026-05-08 14:53 23.14509 -109.44253 10430 ft 336 kts 224°
2026-05-08 14:53 23.12799 -109.46002 9816 ft 335 kts 224°
2026-05-08 14:53 23.11122 -109.47714 9261 ft 326 kts 224°
2026-05-08 14:53 23.09507 -109.49361 8852 ft 308 kts 225°
2026-05-08 14:54 23.07941 -109.50973 8447 ft 290 kts 225°
2026-05-08 14:54 23.06478 -109.52473 8052 ft 276 kts 225°
2026-05-08 14:54 23.05096 -109.53886 7553 ft 269 kts 225°
2026-05-08 14:54 23.03750 -109.55257 7044 ft 263 kts 225°
2026-05-08 14:55 23.02439 -109.56602 6583 ft 258 kts 226°
2026-05-08 14:55 23.01136 -109.57941 6120 ft 255 kts 226°
2026-05-08 14:55 22.99849 -109.59258 5647 ft 252 kts 226°
2026-05-08 14:55 22.98625 -109.60606 5187 ft 247 kts 237°
2026-05-08 14:56 22.97952 -109.62264 4754 ft 240 kts 262°
2026-05-08 14:56 22.97763 -109.64021 4393 ft 233 kts 266°
2026-05-08 14:56 22.97617 -109.65749 4045 ft 227 kts 266°
2026-05-08 14:56 22.97467 -109.67427 3804 ft 216 kts 266°
2026-05-08 14:57 22.97472 -109.68995 3537 ft 201 kts 287°
2026-05-08 14:57 22.98235 -109.70174 3363 ft 192 kts 325°
2026-05-08 14:57 22.99481 -109.70583 3206 ft 185 kts 355°
2026-05-08 14:57 23.00753 -109.70600 2965 ft 180 kts 359°
2026-05-08 14:58 23.02015 -109.70624 2711 ft 179 kts 357°
2026-05-08 14:58 23.03233 -109.70701 2462 ft 170 kts 354°
2026-05-08 14:58 23.04358 -109.70818 2250 ft 155 kts 353°
2026-05-08 14:58 23.05408 -109.70943 2030 ft 149 kts 353°
2026-05-08 14:59 23.06457 -109.71066 1833 ft 149 kts 354°
2026-05-08 14:59 23.08515 -109.71300 1423 ft 147 kts 353°
2026-05-08 14:59 23.09534 -109.71419 1223 ft 147 kts 353°
2026-05-08 15:00 23.10551 -109.71529 1022 ft 146 kts 353°
2026-05-08 15:00 23.11564 -109.71652 818 ft 146 kts 353°
2026-05-08 15:00 23.12568 -109.71762 618 ft 145 kts 352°
2026-05-08 15:00 23.13573 -109.71884 409 ft 144 kts 352°
2026-05-08 15:01 23.14526 -109.71995 346 ft 109 kts 354°
2026-05-08 15:01 23.15132 -109.72071 367 ft 68 kts 354°
2026-05-08 15:01 23.15485 -109.72111 373 ft 39 kts 354°
2026-05-08 15:01 23.15717 -109.72137 378 ft 30 kts 354°
2026-05-08 15:02 23.15886 -109.72087 378 ft 24 kts 25°
2026-05-08 15:02 23.16033 -109.72013 374 ft 23 kts 24°
2026-05-08 15:02 23.16111 -109.71973 373 ft 7 kts 33°
2026-05-08 15:02 23.16134 -109.71909 370 ft 6 kts 83°
2026-05-08 15:03 23.16120 -109.71876 367 ft 5 kts 155°
2026-05-08 15:03 23.16104 -109.71847 365 ft 4 kts 84°
2026-05-08 15:03 23.16107 -109.71824 364 ft 0 kts 84°